アトラス彗星

P/2019 T5 ( ATLAS )

English version
Home page
Updated on December 9, 2019

---------------------------------------------------------------------

・ プロフィール

発見日 2019年10月8日
発見光度 18.9等
発見者 Asteroid Terrestrial-Impact Last Alert System (ATLAS) search program

・ 写真集

・ 軌道要素

Epoch 2019 July 16.0 TT = JDT 2458680.5                                         
T 2019 Aug. 1.03177 TT                                  Williams                
q   1.5281234            (2000.0)            P               Q                  
n   0.04441405     Peri.  189.54931     +0.24630556     -0.82440679             
a   7.8968847      Node   247.68746     +0.92160477     +0.36195592             
e   0.8064904      Incl.   33.42452     +0.29996371     -0.43513372             
P  22.2                                                                         
From 53 observations 2019 Oct. 8-23, mean residual 0".5.                        

・ 光度変化

        m1 = 14.5 + 5 logΔ + 10.0 log r

---------------------------------------------------------------------

軌道要素はM.P.E.C. 2019-V116に掲載されたものです。
光度グラフはComet for Windowsで作成したものです。

---------------------------------------------------------------------

Copyright(C) Seiichi Yoshida (comet@aerith.net). All rights reserved.